User: anonymous
Location: Unspecified
(0.0000°N, 0.0000°E)
Time: 05:43:04
(UTC+00:00)
Language:

deb r/b Ablestar - Orbit

View from above orbital plane
View from above orbital plane
View from above satellite
View from above satellite

Ground track
Ground track

The orbit data is extracted from the following two-line orbital elements,

1 00335U 61015DM  14109.31509363  .00002008  00000-0  10650-2 0  1782
2 00335 066.8438 295.1292 0044364 220.5686 198.1520 14.15132520697976
Epoch (UTC): 19 April 2014 07:33:44
Eccentricity: 0.0044364
inclination: 66.8438°
perigee height: 810 km
apogee height: 874 km
right ascension of ascending node: 295.1292°
argument of perigee: 220.5686°
revolutions per day: 14.15132520
mean anomaly at epoch: 198.1520°
orbit number at epoch: 69797

The dashed part of the orbit path shows where the satellite is in the earth's shadow,  

DLR